| time (UTC) | temp F | wind direction | speed MPH | gust MPH | rain 1hr in | rain 24hr in | rain mn in | humidity % | barometer mb |
| 20260506191528 | 52 | 29 | 0.0 | 2.0 | 0.00 | 0.15 | 0.14 | 82 | 1010.1 |
| 20260506190030 | 53 | 0 | 0.0 | 2.0 | 0.00 | 0.15 | 0.14 | 79 | 1010.0 |
| 20260506184531 | 54 | 352 | 0.0 | 2.0 | 0.00 | 0.15 | 0.14 | 78 | 1009.8 |
| 20260506183029 | 55 | 360 | 1.0 | 4.0 | 0.00 | 0.15 | 0.14 | 76 | 1009.6 |
| 20260506181530 | 56 | 234 | 0.0 | 3.0 | 0.00 | 0.15 | 0.14 | 73 | 1009.5 |
| 20260506180034 | 57 | 254 | 1.0 | 4.0 | 0.00 | 0.15 | 0.14 | 71 | 1009.2 |
| 20260506174528 | 57 | 271 | 3.0 | 7.0 | 0.00 | 0.15 | 0.14 | 71 | 1009.0 |
| 20260506173034 | 56 | 232 | 4.0 | 13.0 | 0.00 | 0.15 | 0.14 | 70 | 1008.7 |
| 20260506171532 | 57 | 317 | 3.0 | 10.0 | 0.00 | 0.15 | 0.14 | 70 | 1008.6 |
| 20260506170028 | 57 | 263 | 3.0 | 9.0 | 0.00 | 0.15 | 0.14 | 70 | 1008.5 |
| 20260506164529 | 56 | 310 | 2.0 | 10.0 | 0.00 | 0.17 | 0.14 | 73 | 1008.5 |
| 20260506163050 | 55 | 251 | 4.0 | 8.0 | 0.00 | 0.17 | 0.14 | 77 | 1008.6 |
| 20260506161527 | 53 | 207 | 4.0 | 11.0 | 0.00 | 0.17 | 0.14 | 80 | 1008.8 |
| 20260506160031 | 54 | 201 | 1.0 | 8.0 | 0.00 | 0.17 | 0.14 | 80 | 1008.8 |
| 20260506154532 | 54 | 227 | 2.0 | 7.0 | 0.00 | 0.17 | 0.14 | 80 | 1008.9 |
| 20260506153028 | 53 | 196 | 3.0 | 8.0 | 0.00 | 0.17 | 0.14 | 83 | 1009.0 |
| 20260506151528 | 53 | 288 | 2.0 | 7.0 | 0.00 | 0.17 | 0.14 | 82 | 1008.8 |
| 20260506150029 | 53 | 273 | 3.0 | 7.0 | 0.00 | 0.17 | 0.14 | 82 | 1009.0 |
| 20260506144530 | 53 | 272 | 2.0 | 6.0 | 0.00 | 0.17 | 0.14 | 83 | 1008.8 |
| 20260506143035 | 53 | 263 | 2.0 | 6.0 | 0.00 | 0.17 | 0.14 | 85 | 1008.7 |
| 20260506141536 | 53 | 214 | 2.0 | 5.0 | 0.00 | 0.17 | 0.14 | 85 | 1008.8 |
| 20260506140028 | 53 | 223 | 2.0 | 6.0 | 0.00 | 0.17 | 0.14 | 85 | 1008.7 |
| 20260506134527 | 53 | 138 | 0.0 | 4.0 | 0.00 | 0.17 | 0.14 | 87 | 1008.6 |
| 20260506133030 | 52 | 279 | 3.0 | 11.0 | 0.00 | 0.17 | 0.14 | 85 | 1008.6 |
| 20260506131530 | 52 | 240 | 3.0 | 7.0 | 0.00 | 0.17 | 0.14 | 88 | 1008.4 |
| 20260506130030 | 52 | 300 | 2.0 | 7.0 | 0.00 | 0.17 | 0.14 | 89 | 1008.6 |
| 20260506124529 | 51 | 308 | 3.0 | 8.0 | 0.02 | 0.17 | 0.14 | 89 | 1008.5 |
| 20260506123033 | 51 | 188 | 3.0 | 8.0 | 0.08 | 0.17 | 0.14 | 90 | 1008.1 |
| 20260506121538 | 51 | 208 | 1.0 | 11.0 | 0.10 | 0.17 | 0.14 | 90 | 1007.8 |
| 20260506120030 | 51 | 296 | 4.0 | 12.0 | 0.09 | 0.16 | 0.13 | 89 | 1007.7 |
| 20260506114538 | 52 | 268 | 6.0 | 17.0 | 0.09 | 0.14 | 0.11 | 87 | 1007.5 |
| 20260506113028 | 54 | 236 | 2.0 | 6.0 | 0.02 | 0.07 | 0.04 | 88 | 1007.2 |
| 20260506111536 | 55 | 205 | 2.0 | 4.0 | 0.01 | 0.07 | 0.03 | 86 | 1007.0 |
| 20260506110031 | 55 | 231 | 1.0 | 3.0 | 0.00 | 0.06 | 0.03 | 85 | 1006.8 |
| 20260506104532 | 56 | 202 | 1.0 | 5.0 | 0.00 | 0.05 | 0.02 | 84 | 1006.7 |
| 20260506103029 | 56 | 221 | 1.0 | 3.0 | 0.00 | 0.05 | 0.02 | 85 | 1006.7 |
| 20260506101533 | 55 | 211 | 1.0 | 3.0 | 0.00 | 0.05 | 0.02 | 84 | 1006.7 |
| 20260506100030 | 55 | 209 | 2.0 | 3.0 | 0.00 | 0.05 | 0.02 | 85 | 1006.7 |
| 20260506094535 | 55 | 203 | 2.0 | 3.0 | 0.00 | 0.05 | 0.02 | 85 | 1006.6 |
| 20260506093031 | 54 | 0 | 0.0 | 0.0 | 0.00 | 0.04 | 0.01 | 84 | 1006.4 |
| 20260506091528 | 54 | 0 | 0.0 | 2.0 | 0.00 | 0.04 | 0.01 | 85 | 1006.6 |
| 20260506090027 | 54 | 194 | 0.0 | 3.0 | 0.00 | 0.04 | 0.01 | 86 | 1006.5 |
| 20260506084529 | 54 | 216 | 1.0 | 3.0 | 0.00 | 0.04 | 0.01 | 88 | 1006.4 |
| 20260506083032 | 54 | 216 | 0.0 | 3.0 | 0.00 | 0.04 | 0.01 | 89 | 1006.4 |
| 20260506081528 | 53 | 0 | 0.0 | 2.0 | 0.00 | 0.03 | 0.00 | 90 | 1006.4 |
| 20260506073029 | 52 | 0 | 0.0 | 0.0 | 0.00 | 0.03 | 0.00 | 90 | 1006.3 |
| 20260506071532 | 52 | 0 | 0.0 | 0.0 | 0.00 | 0.03 | 0.00 | 91 | 1006.4 |
| 20260506061533 | 49 | 241 | 0.0 | 2.0 | 0.00 | 0.03 | 0.00 | 93 | 1006.3 |
| 20260506044539 | 47 | 187 | 2.0 | 4.0 | 0.00 | 0.03 | 0.00 | 95 | 1006.4 |
| 20260506043027 | 47 | 200 | 1.0 | 3.0 | 0.00 | 0.03 | 0.00 | 96 | 1006.5 |
| 20260506041529 | 47 | 229 | 1.0 | 3.0 | 0.00 | 0.03 | 0.00 | 95 | 1006.6 |
| 20260506040050 | 47 | 272 | 0.0 | 2.0 | 0.00 | 0.03 | 0.00 | 95 | 1006.6 |
| 20260506034528 | 47 | 194 | 0.0 | 2.0 | 0.00 | 0.03 | 0.00 | 95 | 1006.7 |
| 20260506033030 | 47 | 194 | 1.0 | 2.0 | 0.00 | 0.03 | 0.00 | 95 | 1007.0 |
| 20260506031541 | 48 | 194 | 1.0 | 2.0 | 0.00 | 0.03 | 0.00 | 95 | 1007.2 |
| 20260506030028 | 48 | 0 | 0.0 | 2.0 | 0.00 | 0.03 | 0.00 | 95 | 1007.2 |
| 20260506024529 | 48 | 198 | 1.0 | 2.0 | 0.00 | 0.03 | 0.00 | 95 | 1007.4 |
| 20260506023032 | 49 | 0 | 1.0 | 3.0 | 0.00 | 0.03 | 0.00 | 95 | 1007.4 |
| 20260506021528 | 49 | 198 | 0.0 | 2.0 | 0.00 | 0.03 | 0.00 | 95 | 1007.7 |
| 20260506020029 | 49 | 0 | 0.0 | 2.0 | 0.00 | 0.03 | 0.00 | 94 | 1007.8 |
| 20260506014532 | 49 | 0 | 0.0 | 3.0 | 0.00 | 0.03 | 0.00 | 95 | 1007.8 |
| 20260506013029 | 49 | 204 | 1.0 | 4.0 | 0.00 | 0.03 | 0.00 | 94 | 1008.1 |
| 20260506011530 | 50 | 0 | 0.0 | 2.0 | 0.00 | 0.03 | 0.00 | 95 | 1008.2 |
| 20260506010030 | 50 | 0 | 0.0 | 3.0 | 0.00 | 0.03 | 0.00 | 94 | 1008.2 |
| 20260506004528 | 50 | 0 | 1.0 | 2.0 | 0.00 | 0.03 | 0.00 | 95 | 1008.4 |
| 20260506003028 | 50 | 194 | 0.0 | 2.0 | 0.00 | 0.03 | 0.00 | 94 | 1008.7 |
| 20260506001531 | 50 | 194 | 1.0 | 4.0 | 0.00 | 0.03 | 0.00 | 95 | 1008.9 |
| 20260506000032 | 50 | 0 | 0.0 | 2.0 | 0.00 | 0.03 | 0.00 | 94 | 1009.1 |
| 20260505234529 | 50 | 0 | 0.0 | 1.0 | 0.00 | 0.03 | 0.00 | 94 | 1009.4 |
| 20260505233029 | 50 | 0 | 1.0 | 3.0 | 0.00 | 0.03 | 0.00 | 94 | 1009.2 |
| 20260505231541 | 50 | 0 | 0.0 | 4.0 | 0.00 | 0.03 | 0.00 | 94 | 1009.3 |
| 20260505230033 | 50 | 0 | 1.0 | 3.0 | 0.00 | 0.03 | 0.00 | 94 | 1009.3 |
| 20260505224530 | 50 | 0 | 0.0 | 2.0 | 0.00 | 0.03 | 0.00 | 94 | 1009.4 |
| 20260505223032 | 51 | 0 | 0.0 | 2.0 | 0.00 | 0.03 | 0.00 | 93 | 1009.5 |
| 20260505221530 | 51 | 0 | 0.0 | 1.0 | 0.00 | 0.03 | 0.00 | 93 | 1009.4 |
| 20260505220035 | 51 | 214 | 0.0 | 1.0 | 0.00 | 0.03 | 0.00 | 93 | 1009.5 |
| 20260505214535 | 51 | 0 | 0.0 | 2.0 | 0.01 | 0.03 | 0.03 | 93 | 1009.7 |
| 20260505213033 | 51 | 0 | 0.0 | 2.0 | 0.01 | 0.03 | 0.03 | 93 | 1009.7 |
| 20260505211528 | 52 | 214 | 1.0 | 3.0 | 0.01 | 0.03 | 0.03 | 92 | 1009.8 |
| 20260505210030 | 52 | 0 | 0.0 | 2.0 | 0.00 | 0.02 | 0.02 | 92 | 1009.7 |
| 20260505204534 | 52 | 252 | 0.0 | 3.0 | 0.00 | 0.01 | 0.01 | 91 | 1010.0 |
| 20260505203032 | 51 | 0 | 0.0 | 2.0 | 0.00 | 0.01 | 0.01 | 91 | 1009.9 |
| 20260505201528 | 51 | 209 | 1.0 | 3.0 | 0.00 | 0.01 | 0.01 | 91 | 1009.7 |
| 20260505200039 | 51 | 0 | 0.0 | 4.0 | 0.00 | 0.01 | 0.01 | 91 | 1009.7 |
| 20260505194528 | 52 | 192 | 2.0 | 4.0 | 0.00 | 0.01 | 0.01 | 90 | 1009.4 |
| 20260505193030 | 52 | 0 | 0.0 | 2.0 | 0.00 | 0.01 | 0.01 | 90 | 1009.3 |